Location: Borojevi?i
(45.0486°N, 16.2297°E)
Time: 01:15:38
(UTC+00:00)

Nadezhda 4 Rocket - Pass Details

Date: 08 August 2020
Orbit: 949 x 993 km, 82.9° (Epoch: 25 September)

Event Time Altitude Azimuth Distance (km) Brightness Sun altitude
Rises 23:28:54 0° 351° (N) 3,710 8.1 -28.8°
Reaches altitude 10° 23:31:26 10° 352° (N) 2,752 7.2 -28.8°
Maximum altitude 23:37:46 87° 84° (E) 985 3.9 -28.6°
Enters shadow 23:38:08 80° 157° (SSE) 996 3.8 -28.6°
